Location: Catstown
(52.4386°N, 7.2633°W)
Time: 03:27:26
(UTC+00:00)

Cosmos 2084 Rocket - Pass Details

Date: 18 September 2020
Orbit: 546 x 635 km, 62.8° (Epoch: 19 October)

Event Time Altitude Azimuth Distance (km) Brightness Sun altitude
Rises 19:06:56 0° 310° (NW) 2,845 8.1 -5.5°
Reaches altitude 10° 19:09:12 10° 306° (NW) 1,954 7.3 -5.9°
Maximum altitude 19:13:31 54° 230° (SW) 747 4.3 -6.5°
Drops below altitude 10° 19:17:56 10° 153° (SSE) 1,990 5.8 -7.2°
Sets 19:20:15 0° 149° (SSE) 2,902 6.6 -7.5°
